When you browse on this site, cookies collect data to enhance your experience and personalize the content and advertising you see.
Visit our Privacy Policy to learn more. By continuing to use the site, you agree to this use of cookies and data.
  • In Czech Republic
  • List of Countries
  • For 7 days
  • Water Temperature
  • Satellite Maps
  • Weather Map
  • Weather Widgets
  • user-avatar
    Login

    Hourly Weather Mrągowo

    Today, 19 February, Tuesday

    Time Temperature Precipitation Wind Pressure Humidity
    00:00 +1°C° 0 mm 4 mps 750 mmHg 92%
    01:00 +1°C° 0 mm 4 mps 750 mmHg 93%
    02:00 +1°C° 0 mm 4 mps 749 mmHg 92%
    03:00 0°C° 0 mm 4 mps 749 mmHg 92%
    04:00 0°C° 0 mm 4 mps 748 mmHg 91%
    05:00 0°C° 0 mm 4 mps 748 mmHg 90%
    06:00 0°C° 0 mm 4 mps 747 mmHg 89%
    07:00 -1°C° 0 mm 4 mps 747 mmHg 88%
    08:00 +1°C° 0 mm 4 mps 746 mmHg 82%
    09:00 +2°C° 0 mm 5 mps 746 mmHg 76%
    10:00 +3°C° 0 mm 5 mps 746 mmHg 71%
    11:00 +5°C° 0 mm 5 mps 745 mmHg 67%
    12:00 +7°C° 0 mm 5 mps 745 mmHg 62%
    13:00 +8°C° 0 mm 6 mps 745 mmHg 58%
    14:00 +7°C° 0 mm 5 mps 744 mmHg 61%
    15:00 +7°C° 0 mm 5 mps 744 mmHg 65%
    16:00 +7°C° 0 mm 5 mps 744 mmHg 68%
    17:00 +6°C° 0.2 mm 5 mps 744 mmHg 74%
    18:00 +6°C° 0.2 mm 5 mps 744 mmHg 81%
    19:00 +5°C° 0.2 mm 5 mps 744 mmHg 88%
    20:00 +5°C° 0.1 mm 4 mps 744 mmHg 87%
    21:00 +4°C° 0.1 mm 4 mps 744 mmHg 87%
    22:00 +4°C° 0.1 mm 4 mps 744 mmHg 86%
    23:00 +3°C° 0 mm 4 mps 744 mmHg 86%

    Tomorrow, 20 February, Wednesday

    Time Temperature Precipitation Wind Pressure Humidity
    00:00 +3°C° 0 mm 4 mps 744 mmHg 86%
    01:00 +2°C° 0 mm 5 mps 744 mmHg 86%
    02:00 +2°C° 0.1 mm 5 mps 744 mmHg 86%
    03:00 +2°C° 0.1 mm 6 mps 743 mmHg 85%
    04:00 +2°C° 0.1 mm 6 mps 743 mmHg 85%
    05:00 +2°C° 0.1 mm 6 mps 744 mmHg 85%
    06:00 +2°C° 0.1 mm 6 mps 744 mmHg 84%
    07:00 +1°C° 0.1 mm 6 mps 744 mmHg 83%
    08:00 +2°C° 0.1 mm 6 mps 744 mmHg 80%
    09:00 +2°C° 0.1 mm 7 mps 745 mmHg 77%
    10:00 +2°C° 0.1 mm 7 mps 745 mmHg 74%
    11:00 +3°C° 0 mm 7 mps 745 mmHg 73%
    12:00 +3°C° 0 mm 7 mps 746 mmHg 73%
    13:00 +3°C° 0 mm 7 mps 746 mmHg 72%
    14:00 +3°C° 0 mm 7 mps 746 mmHg 73%
    15:00 +3°C° 0 mm 7 mps 747 mmHg 74%
    16:00 +2°C° 0 mm 7 mps 747 mmHg 75%
    17:00 +2°C° 0 mm 7 mps 748 mmHg 76%
    18:00 +1°C° 0 mm 6 mps 748 mmHg 77%
    19:00 0°C° 0 mm 5 mps 749 mmHg 78%
    20:00 -1°C° 0 mm 4 mps 749 mmHg 79%
    21:00 -1°C° 0 mm 4 mps 750 mmHg 79%
    22:00 -1°C° 0 mm 3 mps 750 mmHg 80%
    23:00 -1°C° 0 mm 3 mps 750 mmHg 81%

    Day after tomorrow, 21 February, Thursday

    Time Temperature Precipitation Wind Pressure Humidity
    00:00 -1°C° 0 mm 2 mps 750 mmHg 82%
    01:00 -1°C° 0 mm 2 mps 751 mmHg 83%
    02:00 -1°C° 0 mm 2 mps 751 mmHg 86%
    03:00 -1°C° 0 mm 2 mps 751 mmHg 89%
    04:00 +1°C° 0 mm 2 mps 750 mmHg 91%
    05:00 +2°C° 0.1 mm 1 mps 750 mmHg 92%
    06:00 +2°C° 0.1 mm 1 mps 750 mmHg 93%
    07:00 +1°C° 0.1 mm 0 mps 750 mmHg 94%
    08:00 +2°C° 0.3 mm 1 mps 750 mmHg 92%
    09:00 +2°C° 0.3 mm 1 mps 750 mmHg 89%
    10:00 +2°C° 0.3 mm 2 mps 750 mmHg 87%
    11:00 +2°C° 0.3 mm 2 mps 750 mmHg 87%
    12:00 +2°C° 0.3 mm 2 mps 750 mmHg 88%
    13:00 +2°C° 0.3 mm 2 mps 750 mmHg 88%
    14:00 +1°C° 0.1 mm 2 mps 750 mmHg 88%
    15:00 +1°C° 0.1 mm 2 mps 750 mmHg 87%
    16:00 +1°C° 0.1 mm 2 mps 750 mmHg 87%
    17:00 0°C° 0.1 mm 3 mps 750 mmHg 85%
    18:00 -1°C° 0.1 mm 3 mps 750 mmHg 83%
    19:00 -1°C° 0.1 mm 3 mps 751 mmHg 81%
    20:00 -2°C° 0.2 mm 4 mps 751 mmHg 83%
    21:00 -3°C° 0.2 mm 4 mps 752 mmHg 84%
    22:00 -4°C° 0.2 mm 4 mps 752 mmHg 85%
    23:00 -4°C° 0.2 mm 4 mps 753 mmHg 82%

    22 February, Friday

    Time Temperature Precipitation Wind Pressure Humidity
    00:00 -4°C° 0.2 mm 4 mps 754 mmHg 79%
    01:00 -4°C° 0.2 mm 4 mps 755 mmHg 77%
    02:00 -5°C° 0 mm 4 mps 756 mmHg 76%
    03:00 -5°C° 0 mm 4 mps 756 mmHg 75%
    04:00 -7°C° 0 mm 4 mps 757 mmHg 74%
    05:00 -7°C° 0 mm 4 mps 758 mmHg 73%
    06:00 -7°C° 0 mm 5 mps 759 mmHg 71%
    07:00 -8°C° 0 mm 5 mps 760 mmHg 70%
    08:00 -7°C° 0 mm 5 mps 761 mmHg 66%
    09:00 -7°C° 0 mm 5 mps 762 mmHg 62%
    10:00 -7°C° 0 mm 5 mps 763 mmHg 58%
    11:00 -6°C° 0 mm 5 mps 764 mmHg 54%
    12:00 -6°C° 0 mm 5 mps 764 mmHg 50%
    13:00 -4°C° 0 mm 4 mps 765 mmHg 46%
    14:00 -4°C° 0 mm 4 mps 765 mmHg 46%
    15:00 -4°C° 0 mm 4 mps 766 mmHg 47%
    16:00 -4°C° 0 mm 3 mps 766 mmHg 47%
    17:00 -5°C° 0 mm 3 mps 766 mmHg 50%
    18:00 -5°C° 0 mm 3 mps 767 mmHg 53%
    19:00 -5°C° 0 mm 2 mps 767 mmHg 56%
    20:00 -5°C° 0 mm 2 mps 768 mmHg 57%
    21:00 -5°C° 0 mm 2 mps 768 mmHg 57%
    22:00 -5°C° 0 mm 2 mps 768 mmHg 58%
    23:00 -5°C° 0 mm 2 mps 768 mmHg 58%

    23 February, Saturday

    Time Temperature Precipitation Wind Pressure Humidity
    00:00 -5°C° 0 mm 2 mps 768 mmHg 58%
    01:00 -6°C° 0 mm 2 mps 768 mmHg 57%
    02:00 -6°C° 0 mm 2 mps 768 mmHg 58%
    03:00 -6°C° 0 mm 2 mps 767 mmHg 58%
    04:00 -6°C° 0 mm 2 mps 767 mmHg 59%
    05:00 -5°C° 0 mm 2 mps 767 mmHg 58%
    06:00 -5°C° 0 mm 2 mps 767 mmHg 57%
    07:00 -5°C° 0 mm 2 mps 767 mmHg 56%
    08:00 -4°C° 0 mm 2 mps 766 mmHg 55%
    09:00 -5°C° 0 mm 3 mps 766 mmHg 55%
    10:00 -4°C° 0 mm 3 mps 766 mmHg 54%
    11:00 -4°C° 0.1 mm 3 mps 766 mmHg 61%
    12:00 -4°C° 0.1 mm 3 mps 765 mmHg 67%
    13:00 -4°C° 0.1 mm 3 mps 765 mmHg 73%
    14:00 -2°C° 0 mm 3 mps 764 mmHg 71%
    15:00 -2°C° 0 mm 3 mps 764 mmHg 68%
    16:00 -2°C° 0 mm 3 mps 763 mmHg 66%
    17:00 -2°C° 0 mm 3 mps 763 mmHg 71%
    18:00 -2°C° 0 mm 4 mps 763 mmHg 76%
    19:00 -2°C° 0 mm 4 mps 763 mmHg 81%
    20:00 -1°C° 0 mm 3 mps 763 mmHg 86%
    21:00 -1°C° 0 mm 3 mps 763 mmHg 92%
    22:00 -1°C° 0 mm 2 mps 762 mmHg 97%
    23:00 -1°C° 0 mm 2 mps 763 mmHg 97%

    24 February, Sunday

    Time Temperature Precipitation Wind Pressure Humidity
    00:00 -1°C° 0 mm 2 mps 763 mmHg 98%
    01:00 -1°C° 0 mm 2 mps 763 mmHg 98%
    02:00 +1°C° 0 mm 2 mps 763 mmHg 98%
    03:00 +1°C° 0 mm 2 mps 763 mmHg 98%
    04:00 +1°C° 0 mm 2 mps 763 mmHg 98%
    05:00 +2°C° 0 mm 1 mps 763 mmHg 98%
    06:00 +2°C° 0 mm 1 mps 763 mmHg 98%
    07:00 +2°C° 0 mm 1 mps 763 mmHg 98%
    08:00 +2°C° 0 mm 1 mps 763 mmHg 98%
    09:00 +2°C° 0 mm 1 mps 764 mmHg 98%
    10:00 +3°C° 0 mm 1 mps 764 mmHg 97%
    11:00 +3°C° 0 mm 1 mps 764 mmHg 97%
    12:00 +3°C° 0 mm 1 mps 764 mmHg 97%
    13:00 +4°C° 0 mm 1 mps 763 mmHg 96%
    14:00 +3°C° 0 mm 1 mps 763 mmHg 97%
    15:00 +2°C° 0 mm 2 mps 763 mmHg 97%
    16:00 +2°C° 0 mm 2 mps 762 mmHg 97%
    17:00 +2°C° 0.1 mm 2 mps 762 mmHg 97%
    18:00 +2°C° 0.1 mm 2 mps 762 mmHg 97%
    19:00 +2°C° 0.1 mm 2 mps 761 mmHg 97%
    20:00 +1°C° 0 mm 3 mps 761 mmHg 97%
    21:00 +1°C° 0 mm 3 mps 760 mmHg 97%
    22:00 +1°C° 0 mm 3 mps 760 mmHg 97%
    23:00 +1°C° 0 mm 3 mps 759 mmHg 97%
    Show more